Location: Skalnate Pleso
(49.1889°N, 20.2450°E)
Time: 23:14:55
(UTC+01:00)

COSMOS 2428 - Visible Passes

Search period start: 21 February 2020 00:00
Search period end: 02 March 2020 00:00
Orbit: 844 x 858 km, 70.9° (Epoch: 21 February)

Date Brightness Start Highest point End Pass type
(mag) Time Alt. Az. Time Alt. Az. Time Alt. Az.
21 Feb 4.6 02:58:43 21° N 02:58:43 21° N 03:00:55 10° NNE visible
21 Feb 4.8 04:40:43 11° NW 04:41:48 12° NNW 04:43:45 10° N visible
22 Feb 4.8 02:46:44 20° N 02:46:44 20° N 02:48:43 10° NNE visible
22 Feb 4.8 04:28:44 11° NNW 04:29:36 12° NNW 04:31:33 10° N visible
23 Feb 4.9 02:34:44 19° N 02:34:44 19° N 02:36:30 10° NNE visible
23 Feb 4.9 04:16:44 11° NNW 04:17:24 12° NNW 04:19:21 10° N visible
24 Feb 5.0 02:22:43 18° N 02:22:43 18° N 02:24:18 10° NNE visible
24 Feb 4.9 04:04:43 11° NNW 04:05:11 12° NNW 04:07:08 10° N visible
25 Feb 5.1 02:10:42 17° N 02:10:42 17° N 02:12:06 10° NNE visible
25 Feb 4.9 03:52:41 12° NNW 03:52:59 12° NNW 03:54:56 10° N visible
26 Feb 5.2 01:58:39 16° N 01:58:39 16° N 01:59:54 10° NNE visible
26 Feb 5.0 03:40:39 12° NNW 03:40:47 12° NNW 03:42:44 10° N visible
27 Feb 5.2 01:46:35 15° N 01:46:35 15° N 01:47:42 10° NNE visible
27 Feb 5.0 03:28:34 12° NNW 03:28:34 12° NNW 03:30:32 10° N visible
28 Feb 5.3 01:34:31 15° NNE 01:34:31 15° NNE 01:35:29 10° NNE visible
28 Feb 5.1 03:16:30 12° NNW 03:16:30 12° NNW 03:18:19 10° N visible
29 Feb 5.4 01:22:25 14° NNE 01:22:25 14° NNE 01:23:17 10° NNE visible
29 Feb 5.1 03:04:25 12° NNW 03:04:25 12° NNW 03:06:07 10° N visible
01 Mar 5.4 01:10:19 14° NNE 01:10:19 14° NNE 01:11:05 10° NNE visible
01 Mar 5.1 02:52:19 12° NNW 02:52:19 12° NNW 02:53:55 10° N visible
